[[{"header":{"parameterUnit":"m.s-1","parameterCategory":1,"la1":30.2991,"la2":30.254,"lo1":-89.0895,"lo2":-89.0444,"dy":0.0017,"dx":0.0017,"nx":28,"ny":28,"refTime":"2024-03-21T03:00:00:Z","depth":0,"parameterNumber":2,"parameterNumberName":"U-component_of_WINDS"},"data":[0,0,0,0,0,0,0,0,0,0,0,0,0,0,0,0,0,0,0,0,0,0,0,0,0,0,0,0,0,0,0,0,0,0,0,0,0,0,0,0,0,0,0,0,0,0,0,0,0,0,0,0,0,0,0,0,0,0,-7.0798,-7.0798,0,-7.0854,-7.0855,-7.0855,-7.0751,-7.0747,-7.0744,-7.074,-7.0797,-7.0802,-7.0806,0,0,0,0,0,0,0,0,0,0,0,0,0,-7.0596,-7.06,-7.0797,-7.0798,-7.0799,-7.0854,-7.0855,-7.0856,-7.0751,-7.0747,-7.0743,-7.0739,-7.0796,-7.0801,-7.0807,0,0,0,0,0,0,0,0,0,0,0,0,0,-7.0671,-7.0602,-7.0797,-7.0754,-7.075,-7.0854,-7.0855,-7.0856,-7.0752,-7.0747,-7.0742,-7.0737,-7.0794,-7.0801,-7.0808,-7.0956,0,0,-7.0829,-7.0833,0,0,0,0,0,0,0,0,-7.0667,-7.0679,-7.0759,-7.0757,-7.0753,-7.079,-7.0804,-7.0889,-7.0753,-7.0751,-7.074,-7.0734,-7.0799,-7.0805,-7.0827,-7.0959,-7.0961,-7.083,-7.0834,-7.0837,-7.084,0,0,0,0,0,0,0,-7.0662,-7.0676,-7.082,-7.0761,-7.0757,-7.073,-7.0735,-7.082,-7.0804,-7.0751,-7.0744,-7.0752,-7.0796,-7.0821,-7.0828,-7.0962,-7.083,-7.0836,-7.0841,-7.0843,-7.1214,-7.122,0,0,0,0,0,0,-7.0663,-7.0672,-7.0818,-7.0821,-7.0696,-7.0738,-7.0743,-7.0783,-7.0803,-7.08,-7.0756,-7.0747,-7.0811,-7.082,-7.0829,-7.1001,-7.0837,-7.0844,-7.0848,-7.1209,-7.1216,-7.1222,0,0,0,0,0,0,-7.0659,-7.0677,-7.0816,-7.0745,-7.076,-7.0747,-7.0793,-7.0787,-7.0811,-7.0806,-7.0803,-7.0784,-7.0807,-7.0819,-7.0925,-7.1002,-7.0847,-7.0854,-7.1202,-7.1211,-7.1219,-7.1348,0,0,0,0,0,0,-7.0653,-7.0676,-7.0733,-7.0747,-7.0765,-7.0911,-7.0798,-7.0792,-7.0824,-7.0812,-7.0832,-7.083,-7.0804,-7.0915,-7.0932,-7.1009,-7.0859,-7.1195,-7.1206,-7.1216,-7.1336,-7.1359,-7.1379,0,0,0,0,0,-7.0646,-7.0768,-7.0736,-7.0755,-7.0836,-7.0916,-7.0926,-7.0894,-7.0831,-7.0887,-7.0884,-7.0829,-7.0992,-7.0926,-7.0945,-7.1025,-7.119,-7.1203,-7.1215,-7.1327,-7.1355,-7.1379,0,0,0,0,0,0,-7.0763,-7.0769,-7.0734,-7.0864,-7.089,-7.0898,-7.0968,-7.0925,-7.097,-7.0957,-7.0915,-7.092,-7.1033,-7.104,-7.0967,-7.1168,-7.108,-7.1097,-7.1159,-7.1185,-7.1206,-7.12,-7.0865,0,0,0,0,0,-7.0804,-7.0869,-7.087,-7.0984,-7.0999,-7.0982,-7.1016,-7.0989,-7.1014,-7.1025,-7.1029,-7.1055,-7.1111,-7.1149,-7.1201,-7.1338,-7.1339,-7.1403,-7.1424,-7.1441,-7.1455,-7.1524,-7.1551,-7.1263,-7.1263,-7.1263,0,0,-7.0889,-7.09,-7.0944,-7.1008,-7.1025,-7.1092,-7.0992,-7.1068,-7.1116,-7.1036,-7.1134,-7.1139,-7.1165,-7.1286,-7.134,-7.1295,-7.1536,-7.1457,-7.1472,-7.1476,-7.154,-7.1567,-7.1591,-7.1271,-7.127,-7.1269,0,0,-7.1076,-7.1093,-7.1188,-7.1207,-7.1234,-7.1222,-7.1245,-7.1259,-7.1258,-7.1357,-7.1297,-7.1355,-7.1454,-7.1474,-7.1497,-7.1691,-7.1641,-7.171,-7.182,-7.1887,-7.191,-7.193,-7.1995,-7.2019,-7.1724,-7.1725,-7.1725,0,-7.1178,-7.1277,-7.1242,-7.1321,-7.1349,-7.1281,-7.1375,-7.1395,-7.1438,-7.1459,-7.141,-7.153,-7.1544,-7.1666,-7.1713,-7.1736,-7.1758,-7.1705,-7.191,-7.1929,-7.1947,-7.2009,-7.2034,-7.1732,-7.1731,-7.1731,-7.173,0,-7.1398,-7.1467,-7.1541,-7.1583,-7.162,-7.1707,-7.1684,-7.1726,-7.1696,-7.1688,-7.1788,-7.1802,-7.1853,-7.1881,-7.1854,-7.1999,-7.197,-7.1917,-7.1827,-7.1983,-7.204,-7.2064,-7.1743,-7.1741,-7.1738,-7.1736,0,0,-7.1659,-7.168,-7.1707,-7.1724,-7.1749,-7.1801,-7.1884,-7.1934,-7.1969,-7.2002,-7.2068,-7.2153,-7.2102,-7.2128,-7.2102,-7.2163,-7.231,-7.21,-7.21,-7.2135,-7.2467,-7.2505,-7.2533,-7.2279,-7.2284,-7.2287,-7.2464,0,-7.1842,-7.1984,-7.1954,-7.2092,-7.2154,-7.2089,-7.216,-7.2183,-7.2178,-7.2228,-7.2223,-7.2282,-7.2213,-7.2228,-7.2285,-7.228,-7.2376,-7.2268,-7.2337,-7.234,-7.2328,-7.2563,-7.2604,-7.2769,-7.2486,-7.249,-7.2493,0,-7.2074,-7.2113,-7.2258,-7.2269,-7.2294,-7.2359,-7.2401,-7.2452,-7.2474,-7.2466,-7.2496,-7.2457,-7.2537,-7.245,-7.2558,-7.2485,-7.2512,-7.2514,-7.252,-7.2522,-7.2423,-7.2567,-7.2822,-7.2845,-7.2528,-7.2526,-7.2523,0,-7.2245,-7.2335,-7.2431,-7.2448,-7.2466,-7.2512,-7.2521,-7.2539,-7.257,-7.2608,-7.2627,-7.2674,-7.2698,-7.2735,-7.271,-7.2649,-7.2821,-7.2732,-7.2813,-7.2814,-7.2849,-7.2847,-7.3107,-7.2875,-7.2874,-7.2874,-7.2873,0,-7.245,-7.2539,-7.2507,-7.2567,-7.2664,-7.2629,-7.2727,-7.2729,-7.2745,-7.2802,-7.2751,-7.2805,-7.277,-7.2822,-7.2803,-7.2893,-7.2906,-7.2899,-7.2892,-7.2902,-7.2902,-7.2916,-7.2902,-7.288,-7.2879,-7.2878,-7.2876,0,-7.2656,-7.2638,-7.2739,-7.2746,-7.275,-7.2822,-7.2827,-7.2882,-7.2873,-7.2945,-7.2961,-7.2947,-7.3004,-7.2983,-7.3046,-7.3033,-7.3146,-7.3127,-7.3138,-7.3131,-7.3213,-7.3204,-7.3488,-7.3522,-7.3271,-7.3274,-7.3276,0,-7.2786,-7.2853,-7.2867,-7.2901,-7.2914,-7.2971,-7.3002,-7.297,-7.3004,-7.3034,-7.3084,-7.3137,-7.3177,-7.3272,-7.3267,-7.3314,-7.3292,-7.3389,-7.3298,-7.3304,-7.3288,-7.3283,-7.3287,-7.3405,-7.3408,-7.3411,-7.3412,0,-7.3017,-7.3004,-7.3051,-7.3095,-7.3133,-7.3166,-7.3194,-7.3225,-7.3195,-7.3236,-7.3293,-7.3325,-7.3387,-7.3439,-7.348,-7.3489,-7.3445,-7.3441,-7.3462,-7.347,-7.3472,-7.3467,-7.3182,-7.3434,-7.3432,-7.343,-7.3429,-7.3428,-7.3186,-7.3241,-7.3259,-7.3312,-7.3329,-7.3356,-7.3406,-7.3403,-7.3451,-7.3498,-7.3477,-7.3543,-7.3562,-7.3612,-7.3627,-7.3677,-7.3639,-7.3671,-7.3677,-7.3685,-7.3693,-7.3467,-7.3685,-7.3685,-7.3684,-7.3683,-7.3683,0,-7.3411,-7.3419,-7.3468,-7.3508,-7.3549,-7.3505,-7.3533,-7.357,-7.3629,-7.365,-7.369,-7.3755,-7.3805,-7.3804,-7.3849,-7.389,-7.387,-7.3902,-7.3897,-7.3899,-7.3726,-7.3702,-7.3917,-7.3917,-7.3917,-7.3917,-7.3917,-7.3917,-7.3533,-7.3622,-7.3612,-7.3708,-7.3715,-7.3779,-7.3798,-7.3822,-7.3838,-7.3912,-7.3953,-7.3952,-7.3963,-7.4009,-7.4052,-7.405,-7.4068,-7.4107,-7.4097,-7.3935,-7.3911,-7.3889,-7.3866,-7.4112,-7.4112,-7.4264,-7.4266,-7.4267]},{"header":{"parameterUnit":"m.s-1","parameterCategory":1,"la1":30.2991,"la2":30.254,"lo1":-89.0895,"lo2":-89.0444,"dy":0.0017,"dx":0.0017,"nx":28,"ny":28,"refTime":"2024-03-21T03:00:00:Z","depth":0,"parameterNumber":3,"parameterNumberName":"V-component_of_WINDS"},"data":[0,0,0,0,0,0,0,0,0,0,0,0,0,0,0,0,0,0,0,0,0,0,0,0,0,0,0,0,0,0,0,0,0,0,0,0,0,0,0,0,0,0,0,0,0,0,0,0,0,0,0,0,0,0,0,0,0,0,5.1182,5.1182,0,5.1263,5.1264,5.1265,5.1144,5.1139,5.1135,5.1131,5.1207,5.1213,5.1219,0,0,0,0,0,0,0,0,0,0,0,0,0,5.0918,5.0923,5.1181,5.1183,5.1184,5.1263,5.1264,5.1265,5.1144,5.1139,5.1134,5.1129,5.1205,5.1212,5.122,0,0,0,0,0,0,0,0,0,0,0,0,0,5.1019,5.0925,5.1181,5.1133,5.113,5.1262,5.1264,5.1265,5.1146,5.1139,5.1133,5.1127,5.1203,5.1212,5.1221,5.1402,0,0,5.1248,5.1252,0,0,0,0,0,0,0,0,5.1013,5.1028,5.1139,5.1137,5.1133,5.1187,5.1198,5.1311,5.1147,5.1139,5.1131,5.1124,5.1205,5.1213,5.1242,5.1405,5.1409,5.1249,5.1254,5.1258,5.126,0,0,0,0,0,0,0,5.1006,5.1024,5.1213,5.1141,5.1137,5.1106,5.1113,5.1219,5.1206,5.1139,5.1131,5.1143,5.1202,5.1234,5.1243,5.141,5.1248,5.1256,5.1262,5.1265,5.173,5.1736,0,0,0,0,0,0,5.1006,5.1019,5.1211,5.1216,5.1057,5.1116,5.1124,5.1176,5.1205,5.1203,5.1148,5.1137,5.1222,5.1233,5.1245,5.1463,5.1258,5.1266,5.1271,5.1723,5.1731,5.1739,0,0,0,0,0,0,5.1001,5.1024,5.1207,5.1115,5.1136,5.1127,5.1186,5.1181,5.1212,5.1211,5.1208,5.1183,5.1217,5.1233,5.1365,5.1463,5.127,5.1278,5.1714,5.1725,5.1735,5.1897,0,0,0,0,0,0,5.0994,5.1023,5.1093,5.1118,5.1142,5.1328,5.1192,5.1187,5.1229,5.1215,5.1244,5.1242,5.1214,5.1353,5.1374,5.1472,5.1285,5.1706,5.1719,5.1732,5.1883,5.1912,5.1937,0,0,0,0,0,5.0985,5.1132,5.1097,5.1121,5.1229,5.1334,5.1347,5.1313,5.1237,5.1307,5.1307,5.1241,5.1449,5.1367,5.139,5.1493,5.1699,5.1715,5.1731,5.1871,5.1906,5.1936,0,0,0,0,0,0,5.1115,5.1135,5.1095,5.1256,5.1295,5.1313,5.14,5.1351,5.141,5.1394,5.1347,5.1355,5.1498,5.1507,5.1416,5.1672,5.1561,5.1582,5.166,5.1694,5.172,5.1715,5.1293,0,0,0,0,0,5.1163,5.1249,5.126,5.1401,5.1423,5.1409,5.1453,5.1424,5.1461,5.1476,5.1485,5.1521,5.1595,5.1644,5.1712,5.1884,5.1889,5.1965,5.1992,5.2014,5.2033,5.2128,5.2163,5.179,5.179,5.179,0,0,5.1262,5.1284,5.1339,5.1428,5.1454,5.1543,5.1423,5.152,5.1586,5.1489,5.1617,5.1625,5.1663,5.1817,5.1885,5.183,5.2138,5.2034,5.2052,5.2059,5.2148,5.2183,5.2215,5.1801,5.1799,5.1797,0,0,5.1489,5.1513,5.1635,5.1665,5.1708,5.1699,5.1728,5.1755,5.1759,5.1886,5.1817,5.1893,5.202,5.2051,5.2084,5.2327,5.227,5.235,5.249,5.2584,5.2613,5.2639,5.2728,5.2761,5.2369,5.2369,5.237,0,5.1606,5.1739,5.1703,5.1808,5.185,5.177,5.1894,5.1923,5.1986,5.2016,5.1953,5.2115,5.2134,5.2296,5.2357,5.2384,5.2417,5.2347,5.2612,5.2638,5.2661,5.2746,5.278,5.2379,5.2378,5.2377,5.2376,0,5.1882,5.1976,5.2068,5.2136,5.2187,5.23,5.2281,5.2338,5.2305,5.2302,5.2435,5.2456,5.2528,5.2564,5.2531,5.2723,5.2688,5.262,5.2508,5.2707,5.2786,5.2818,5.2393,5.2389,5.2387,5.2384,0,0,5.2191,5.224,5.2275,5.2306,5.235,5.2421,5.2531,5.2605,5.2656,5.2701,5.2794,5.2906,5.2845,5.2882,5.2852,5.2933,5.3129,5.2855,5.2856,5.2908,5.3345,5.3398,5.3436,5.3091,5.3097,5.3102,5.3343,0,5.2419,5.2614,5.2587,5.2773,5.286,5.2788,5.2884,5.2921,5.2922,5.2995,5.2993,5.3076,5.2987,5.301,5.3087,5.3089,5.3216,5.3071,5.3177,5.3181,5.3172,5.3477,5.3532,5.3758,5.3373,5.3378,5.3382,0,5.2711,5.2774,5.297,5.3005,5.304,5.3128,5.3196,5.3266,5.3307,5.3302,5.3346,5.3303,5.3413,5.33,5.3452,5.3354,5.3395,5.3403,5.3411,5.3421,5.3295,5.3497,5.3829,5.3864,5.3429,5.3426,5.3422,0,5.2921,5.3053,5.3189,5.3217,5.326,5.3324,5.3344,5.3379,5.3427,5.3485,5.3516,5.3585,5.3623,5.3678,5.3655,5.3574,5.3812,5.3696,5.3812,5.3813,5.3866,5.3863,5.4212,5.389,5.3889,5.3888,5.3888,0,5.318,5.3304,5.3285,5.3368,5.3505,5.3473,5.3608,5.3619,5.3652,5.3736,5.3676,5.3755,5.3719,5.3796,5.3778,5.3909,5.3925,5.3925,5.3919,5.3932,5.3933,5.396,5.3944,5.3897,5.3895,5.3894,5.3892,0,5.3438,5.343,5.3574,5.3604,5.3615,5.3715,5.374,5.3818,5.3816,5.3923,5.3946,5.3942,5.403,5.4013,5.4108,5.4096,5.4261,5.4234,5.4249,5.4243,5.4361,5.4352,5.4741,5.4792,5.4434,5.4438,5.4441,0,5.3605,5.37,5.3742,5.3796,5.3823,5.3909,5.396,5.3931,5.3985,5.4042,5.4114,5.4197,5.4263,5.4408,5.4412,5.4486,5.4462,5.4593,5.4472,5.4484,5.4467,5.4463,5.4474,5.4618,5.4622,5.4625,5.4628,0,5.3904,5.3897,5.3972,5.4049,5.4112,5.4169,5.422,5.4267,5.4243,5.4307,5.4399,5.4451,5.4552,5.4636,5.4706,5.4724,5.4674,5.4666,5.4697,5.4712,5.4719,5.472,5.4317,5.4657,5.4654,5.4652,5.465,5.4649,5.4123,5.4206,5.425,5.4338,5.4375,5.4425,5.4502,5.4512,5.4589,5.4671,5.4648,5.4754,5.4794,5.4883,5.491,5.4992,5.4942,5.4987,5.4998,5.5011,5.5027,5.4705,5.5003,5.5002,5.5002,5.5001,5.5,0,5.4422,5.4448,5.4529,5.4606,5.4676,5.4624,5.4679,5.4741,5.4835,5.4879,5.4947,5.5054,5.5136,5.5149,5.5227,5.529,5.5269,5.5312,5.5308,5.5314,5.5064,5.5031,5.5328,5.5328,5.5328,5.5328,5.5328,5.5328,5.4585,5.4724,5.4722,5.4879,5.4903,5.5009,5.5045,5.5092,5.5127,5.5251,5.5321,5.533,5.5361,5.5442,5.5516,5.5517,5.555,5.5603,5.5596,5.5363,5.5331,5.53,5.5268,5.561,5.561,5.5839,5.5841,5.5843]}]]